ITY9906 LIRF-LIEE

Flight info

Callsign ITY9906
Flight time 0h 47m
Altitude 29000
Route ESINO DCT QUENN DCT LEDRO
Aircraft A20N/M-SDE2E3FGHIJ1RWXY/LB1

Departure

Time 2026-05-08 18:30
Airport Rome–Fiumicino Leonardo da Vinci International Airport (LIRF)

Arrival

Time 2026-05-08 19:17
Airport Cagliari Elmas Airport (LIEE)
Time Latitude Longitude Altitude Speed Heading
2026-05-08 17:42 41.79654 12.25595 14 ft 0 kts 295°
2026-05-08 18:22 41.79651 12.25602 14 ft 2 kts 295°
2026-05-08 18:22 41.79645 12.25620 15 ft 2 kts 298°
2026-05-08 18:23 41.79636 12.25636 16 ft 2 kts 326°
2026-05-08 18:23 41.79623 12.25645 17 ft 2 kts 354°
2026-05-08 18:23 41.79608 12.25644 17 ft 2 kts 22°
2026-05-08 18:23 41.79607 12.25643 17 ft 0 kts 24°
2026-05-08 18:25 41.79677 12.25685 14 ft 24 kts 24°
2026-05-08 18:26 41.79808 12.25768 15 ft 15 kts 26°
2026-05-08 18:26 41.79897 12.25837 14 ft 16 kts 28°
2026-05-08 18:26 41.80015 12.25911 14 ft 20 kts 24°
2026-05-08 18:26 41.80141 12.25988 14 ft 20 kts 25°
2026-05-08 18:27 41.80265 12.26066 15 ft 20 kts 24°
2026-05-08 18:27 41.80348 12.26117 16 ft 20 kts 24°
2026-05-08 18:27 41.80512 12.26208 16 ft 18 kts 50°
2026-05-08 18:27 41.80567 12.26372 15 ft 20 kts 71°
2026-05-08 18:28 41.80613 12.26545 15 ft 20 kts 71°
2026-05-08 18:28 41.80661 12.26718 17 ft 20 kts 69°
2026-05-08 18:28 41.80710 12.26892 13 ft 20 kts 70°
2026-05-08 18:28 41.80788 12.27038 13 ft 19 kts
2026-05-08 18:29 41.80919 12.26982 13 ft 21 kts 335°
2026-05-08 18:29 41.80929 12.26822 13 ft 22 kts 250°
2026-05-08 18:29 41.80771 12.26252 19 ft 108 kts 250°
2026-05-08 18:29 41.80425 12.25003 21 ft 175 kts 249°
2026-05-08 18:30 41.79972 12.23357 595 ft 189 kts 249°
2026-05-08 18:30 41.79535 12.21741 1745 ft 182 kts 249°
2026-05-08 18:30 41.79310 12.20056 2533 ft 193 kts 278°
2026-05-08 18:30 41.79806 12.18379 3055 ft 210 kts 303°
2026-05-08 18:31 41.80702 12.16702 3522 ft 233 kts 309°
2026-05-08 18:31 41.81748 12.14940 4214 ft 246 kts 310°
2026-05-08 18:31 41.82802 12.13121 5227 ft 247 kts 308°
2026-05-08 18:31 41.83826 12.11282 6307 ft 245 kts 307°
2026-05-08 18:32 41.84809 12.09403 7405 ft 248 kts 298°
2026-05-08 18:32 41.85281 12.07172 8280 ft 253 kts 271°
2026-05-08 18:32 41.84900 12.04885 9208 ft 256 kts 243°
2026-05-08 18:32 41.83734 12.03087 10113 ft 261 kts 215°
2026-05-08 18:33 41.82030 12.02204 10902 ft 269 kts 188°
2026-05-08 18:33 41.80163 12.02470 11552 ft 277 kts 160°
2026-05-08 18:33 41.78520 12.03844 12331 ft 284 kts 139°
2026-05-08 18:33 41.77100 12.05828 12704 ft 308 kts 131°
2026-05-08 18:34 41.75665 12.08049 12978 ft 331 kts 131°
2026-05-08 18:34 41.73849 12.10157 13211 ft 352 kts 151°
2026-05-08 18:34 41.71553 12.11252 13756 ft 360 kts 173°
2026-05-08 18:34 41.69064 12.11192 14476 ft 360 kts 193°
2026-05-08 18:35 41.66746 12.09999 15233 ft 357 kts 213°
2026-05-08 18:35 41.64773 12.08002 16017 ft 356 kts 223°
2026-05-08 18:35 41.62924 12.05787 16798 ft 358 kts 224°
2026-05-08 18:35 41.61059 12.03570 17580 ft 359 kts 224°
2026-05-08 18:36 41.59150 12.01399 18353 ft 361 kts 223°
2026-05-08 18:36 41.57204 11.99266 18989 ft 364 kts 222°
2026-05-08 18:36 41.55218 11.97137 19604 ft 367 kts 221°
2026-05-08 18:36 41.53208 11.95006 20227 ft 370 kts 221°
2026-05-08 18:37 41.51180 11.92866 20837 ft 373 kts 221°
2026-05-08 18:37 41.49139 11.90715 21443 ft 376 kts 221°
2026-05-08 18:37 41.47113 11.88580 22048 ft 379 kts 221°
2026-05-08 18:37 41.45035 11.86391 22618 ft 383 kts 221°
2026-05-08 18:38 41.42938 11.84184 23197 ft 386 kts 221°
2026-05-08 18:38 41.40824 11.81960 23758 ft 388 kts 221°
2026-05-08 18:38 41.38697 11.79725 24270 ft 390 kts 221°
2026-05-08 18:38 41.36562 11.77484 24776 ft 392 kts 221°
2026-05-08 18:39 41.34415 11.75233 25273 ft 394 kts 221°
2026-05-08 18:39 41.32984 11.73733 25597 ft 395 kts 222°
2026-05-08 18:39 41.30822 11.71466 26094 ft 397 kts 222°
2026-05-08 18:39 41.28648 11.69190 26558 ft 399 kts 222°
2026-05-08 18:40 41.26462 11.66902 27019 ft 401 kts 222°
2026-05-08 18:40 41.24268 11.64608 27455 ft 403 kts 222°
2026-05-08 18:40 41.22059 11.62301 27880 ft 405 kts 222°
2026-05-08 18:40 41.19840 11.59986 28305 ft 407 kts 222°
2026-05-08 18:41 41.17607 11.57658 28704 ft 409 kts 222°
2026-05-08 18:41 41.15367 11.55325 28976 ft 411 kts 222°
2026-05-08 18:41 41.10873 11.50652 29022 ft 410 kts 222°
2026-05-08 18:42 41.06391 11.45998 29020 ft 409 kts 222°
2026-05-08 18:42 41.01919 11.41362 29024 ft 409 kts 222°
2026-05-08 18:43 40.97438 11.36724 29023 ft 409 kts 222°
2026-05-08 18:43 40.92958 11.32098 29023 ft 408 kts 222°
2026-05-08 18:44 40.88480 11.27480 29025 ft 408 kts 222°
2026-05-08 18:44 40.84002 11.22871 29025 ft 408 kts 221°
2026-05-08 18:45 40.79529 11.18275 29026 ft 407 kts 221°
2026-05-08 18:45 40.75062 11.13694 29023 ft 406 kts 221°
2026-05-08 18:46 40.70601 11.09126 29025 ft 406 kts 221°
2026-05-08 18:46 40.66141 11.04569 29027 ft 405 kts 221°
2026-05-08 18:47 40.61689 11.00026 29031 ft 405 kts 221°
2026-05-08 18:47 40.57232 10.95486 29030 ft 405 kts 221°
2026-05-08 18:48 40.52778 10.90959 29029 ft 404 kts 221°
2026-05-08 18:48 40.48332 10.86447 29033 ft 404 kts 221°
2026-05-08 18:49 40.43915 10.81972 29034 ft 403 kts 221°
2026-05-08 18:49 40.39475 10.77482 29032 ft 403 kts 221°
2026-05-08 18:50 40.35032 10.72995 29036 ft 403 kts 221°
2026-05-08 18:50 40.30593 10.68522 29037 ft 402 kts 221°
2026-05-08 18:51 40.26156 10.64057 29037 ft 402 kts 221°
2026-05-08 18:51 40.21727 10.59609 29039 ft 401 kts 221°
2026-05-08 18:52 40.17299 10.55166 29041 ft 400 kts 221°
2026-05-08 18:52 40.12881 10.50744 29043 ft 399 kts 221°
2026-05-08 18:53 40.08478 10.46346 29038 ft 398 kts 221°
2026-05-08 18:53 40.06275 10.44147 28860 ft 398 kts 221°
2026-05-08 18:53 40.04078 10.41956 28591 ft 396 kts 221°
2026-05-08 18:54 40.01896 10.39783 28317 ft 394 kts 221°
2026-05-08 18:54 39.99726 10.37623 28056 ft 392 kts 221°
2026-05-08 18:54 39.97563 10.35471 27784 ft 391 kts 222°
2026-05-08 18:54 39.95404 10.33325 27533 ft 389 kts 222°
2026-05-08 18:55 39.91117 10.29068 27023 ft 387 kts 222°
2026-05-08 18:55 39.88978 10.26946 26765 ft 385 kts 222°
2026-05-08 18:55 39.86848 10.24836 26517 ft 384 kts 222°
2026-05-08 18:56 39.84728 10.22737 26267 ft 383 kts 222°
2026-05-08 18:56 39.82612 10.20644 26022 ft 381 kts 222°
2026-05-08 18:56 39.80503 10.18560 25778 ft 380 kts 222°
2026-05-08 18:56 39.78401 10.16483 25538 ft 379 kts 222°
2026-05-08 18:57 39.76306 10.14415 25298 ft 378 kts 222°
2026-05-08 18:57 39.74921 10.13050 25143 ft 377 kts 222°
2026-05-08 18:57 39.72139 10.10309 24818 ft 375 kts 222°
2026-05-08 18:57 39.70062 10.08263 24607 ft 374 kts 222°
2026-05-08 18:58 39.67994 10.06228 24367 ft 373 kts 222°
2026-05-08 18:58 39.65929 10.04198 24132 ft 372 kts 222°
2026-05-08 18:58 39.63866 10.02171 23900 ft 372 kts 222°
2026-05-08 18:58 39.61808 10.00151 23673 ft 371 kts 222°
2026-05-08 18:59 39.59752 9.98135 23414 ft 370 kts 222°
2026-05-08 18:59 39.57704 9.96128 23136 ft 368 kts 222°
2026-05-08 18:59 39.55663 9.94129 22871 ft 367 kts 222°
2026-05-08 18:59 39.53628 9.92138 22602 ft 367 kts 222°
2026-05-08 19:00 39.51590 9.90145 22339 ft 366 kts 222°
2026-05-08 19:00 39.49591 9.88192 22081 ft 364 kts 222°
2026-05-08 19:00 39.47544 9.86193 21826 ft 363 kts 222°
2026-05-08 19:00 39.45550 9.84250 21731 ft 354 kts 222°
2026-05-08 19:01 39.43612 9.82367 21572 ft 342 kts 222°
2026-05-08 19:01 39.41727 9.80533 21325 ft 341 kts 223°
2026-05-08 19:01 39.39805 9.78648 21074 ft 361 kts 222°
2026-05-08 19:01 39.37761 9.76645 20828 ft 374 kts 222°
2026-05-08 19:02 39.35684 9.74627 20571 ft 372 kts 222°
2026-05-08 19:02 39.33617 9.72625 20321 ft 371 kts 222°
2026-05-08 19:02 39.31558 9.70614 19879 ft 369 kts 225°
2026-05-08 19:02 39.29822 9.68243 19172 ft 361 kts 238°
2026-05-08 19:03 39.28650 9.65390 18369 ft 360 kts 252°
2026-05-08 19:03 39.28112 9.62251 17623 ft 358 kts 266°
2026-05-08 19:03 39.27968 9.59105 17308 ft 345 kts 266°
2026-05-08 19:03 39.27805 9.56037 16753 ft 341 kts 266°
2026-05-08 19:04 39.27634 9.53003 16184 ft 338 kts 266°
2026-05-08 19:04 39.27461 9.49990 15617 ft 335 kts 266°
2026-05-08 19:04 39.27292 9.47010 15063 ft 332 kts 266°
2026-05-08 19:04 39.27125 9.44047 14516 ft 330 kts 266°
2026-05-08 19:05 39.26958 9.41104 13977 ft 328 kts 266°
2026-05-08 19:05 39.26792 9.38179 13387 ft 326 kts 266°
2026-05-08 19:05 39.26627 9.35263 12804 ft 325 kts 266°
2026-05-08 19:05 39.26463 9.32359 12223 ft 324 kts 266°
2026-05-08 19:06 39.26298 9.29466 11650 ft 323 kts 266°
2026-05-08 19:06 39.26133 9.26578 11092 ft 322 kts 266°
2026-05-08 19:06 39.25968 9.23713 10539 ft 320 kts 266°
2026-05-08 19:06 39.25803 9.20847 10007 ft 319 kts 266°
2026-05-08 19:07 39.25637 9.17995 9412 ft 318 kts 266°
2026-05-08 19:07 39.25472 9.15153 8810 ft 317 kts 266°
2026-05-08 19:07 39.25307 9.12330 8398 ft 311 kts 266°
2026-05-08 19:07 39.25146 9.09607 8257 ft 297 kts 266°
2026-05-08 19:08 39.25061 9.07007 8123 ft 283 kts 274°
2026-05-08 19:08 39.25547 9.04615 7998 ft 271 kts 292°
2026-05-08 19:08 39.26311 9.02442 7871 ft 265 kts 293°
2026-05-08 19:08 39.27085 9.00258 7750 ft 269 kts 293°
2026-05-08 19:09 39.27841 8.98120 7628 ft 261 kts 293°
2026-05-08 19:09 39.28580 8.96029 7459 ft 250 kts 293°
2026-05-08 19:09 39.29285 8.94027 7344 ft 240 kts 293°
2026-05-08 19:09 39.29970 8.92083 7212 ft 230 kts 293°
2026-05-08 19:10 39.30609 8.90264 7083 ft 221 kts 293°
2026-05-08 19:10 39.31407 8.88635 6952 ft 212 kts 317°
2026-05-08 19:10 39.32578 8.87522 6910 ft 207 kts 323°
2026-05-08 19:10 39.33769 8.86471 6858 ft 207 kts 323°
2026-05-08 19:11 39.34934 8.85444 6747 ft 198 kts 323°
2026-05-08 19:11 39.36049 8.84459 6473 ft 192 kts 323°
2026-05-08 19:11 39.37150 8.83472 6075 ft 193 kts 323°
2026-05-08 19:11 39.38337 8.82665 5658 ft 196 kts 347°
2026-05-08 19:12 39.39674 8.82871 5281 ft 198 kts 26°
2026-05-08 19:12 39.40621 8.84074 4960 ft 192 kts 64°
2026-05-08 19:12 39.40788 8.85747 4559 ft 189 kts 104°
2026-05-08 19:12 39.40268 8.87287 4194 ft 186 kts 117°
2026-05-08 19:13 39.39642 8.88723 3900 ft 177 kts 123°
2026-05-08 19:13 39.38853 8.89852 3605 ft 166 kts 138°
2026-05-08 19:13 39.38016 8.90864 3182 ft 164 kts 135°
2026-05-08 19:13 39.37198 8.91897 2735 ft 164 kts 135°
2026-05-08 19:14 39.36386 8.92918 2387 ft 159 kts 135°
2026-05-08 19:14 39.35576 8.93935 2237 ft 166 kts 135°
2026-05-08 19:14 39.34725 8.94927 1996 ft 165 kts 143°
2026-05-08 19:14 39.33770 8.95742 1691 ft 163 kts 146°
2026-05-08 19:15 39.32840 8.96571 1598 ft 164 kts 144°
2026-05-08 19:15 39.31955 8.97497 1598 ft 164 kts 136°
2026-05-08 19:15 39.31135 8.98517 1563 ft 165 kts 135°
2026-05-08 19:15 39.30315 8.99537 1273 ft 159 kts 137°
2026-05-08 19:16 39.29514 9.00454 1020 ft 150 kts 139°
2026-05-08 19:16 39.28738 9.01312 764 ft 144 kts 140°
2026-05-08 19:16 39.28006 9.02153 541 ft 137 kts 137°
2026-05-08 19:16 39.27333 9.02980 312 ft 130 kts 139°
2026-05-08 19:17 39.26628 9.03753 145 ft 134 kts 141°
2026-05-08 19:17 39.25936 9.04538 37 ft 132 kts 139°
2026-05-08 19:17 39.25319 9.05237 13 ft 81 kts 138°
2026-05-08 19:17 39.25119 9.05466 15 ft 29 kts 139°
2026-05-08 19:18 39.25048 9.05590 16 ft 13 kts 85°
2026-05-08 19:18 39.25093 9.05703 15 ft 16 kts 58°
2026-05-08 19:18 39.25146 9.05816 15 ft 8 kts 59°
2026-05-08 19:18 39.25187 9.05840 15 ft 8 kts 336°
2026-05-08 19:19 39.25227 9.05841 15 ft 6 kts 36°
2026-05-08 19:19 39.25251 9.05871 15 ft 0 kts 50°